RYR6M GMFF-GMMX

Flight info

Callsign RYR6M
Flight time 0h 42m
Altitude 29000
Route FES UM372 KUDAX
Aircraft B738/M-SDE3FGILRWY/SB1

Departure

Time 2026-04-23 11:36
Airport Fes Saïss International Airport (GMFF)

Arrival

Time 2026-04-23 12:18
Airport Marrakesh Menara Airport (GMMX)
Time Latitude Longitude Altitude Speed Heading
2026-04-23 11:30 33.92914 -4.98310 1854 ft 2 kts 278°
2026-04-23 11:30 33.92913 -4.98299 1854 ft 1 kts 271°
2026-04-23 11:31 33.92913 -4.98298 1854 ft 0 kts 270°
2026-04-23 11:33 33.92913 -4.98327 1854 ft 7 kts 271°
2026-04-23 11:33 33.92914 -4.98413 1854 ft 11 kts 271°
2026-04-23 11:33 33.92913 -4.98505 1855 ft 11 kts 261°
2026-04-23 11:34 33.92873 -4.98577 1857 ft 11 kts 212°
2026-04-23 11:34 33.92806 -4.98592 1855 ft 9 kts 182°
2026-04-23 11:34 33.92749 -4.98620 1854 ft 8 kts 201°
2026-04-23 11:34 33.92732 -4.98600 1854 ft 0 kts 90°
2026-04-23 11:35 33.92732 -4.98595 1854 ft 7 kts 90°
2026-04-23 11:35 33.92731 -4.98176 1853 ft 93 kts 90°
2026-04-23 11:35 33.92731 -4.97080 1857 ft 166 kts 91°
2026-04-23 11:36 33.92737 -4.95747 2444 ft 180 kts 88°
2026-04-23 11:36 33.92718 -4.94274 3621 ft 174 kts 91°
2026-04-23 11:36 33.92652 -4.92732 4272 ft 196 kts 92°
2026-04-23 11:36 33.92595 -4.90956 4532 ft 227 kts 92°
2026-04-23 11:37 33.92545 -4.88968 4767 ft 256 kts 92°
2026-04-23 11:37 33.92479 -4.86734 5298 ft 273 kts 98°
2026-04-23 11:37 33.91825 -4.84622 6209 ft 269 kts 129°
2026-04-23 11:37 33.90428 -4.83155 7087 ft 270 kts 155°
2026-04-23 11:38 33.88612 -4.82619 7877 ft 272 kts 182°
2026-04-23 11:38 33.86795 -4.83148 8823 ft 270 kts 207°
2026-04-23 11:38 33.85252 -4.84435 9723 ft 274 kts 218°
2026-04-23 11:38 33.83786 -4.85924 10542 ft 275 kts 220°
2026-04-23 11:39 33.82339 -4.87445 11395 ft 278 kts 220°
2026-04-23 11:39 33.80878 -4.88989 12159 ft 284 kts 220°
2026-04-23 11:39 33.79331 -4.90616 12406 ft 308 kts 220°
2026-04-23 11:39 33.77650 -4.92376 12602 ft 332 kts 220°
2026-04-23 11:40 33.75859 -4.94242 13009 ft 346 kts 220°
2026-04-23 11:40 33.74027 -4.96144 13697 ft 351 kts 220°
2026-04-23 11:40 33.72165 -4.98070 14363 ft 354 kts 220°
2026-04-23 11:40 33.70294 -5.00002 15122 ft 356 kts 220°
2026-04-23 11:41 33.68408 -5.01947 15828 ft 359 kts 220°
2026-04-23 11:41 33.66505 -5.03906 16490 ft 363 kts 220°
2026-04-23 11:41 33.64583 -5.05883 17172 ft 365 kts 220°
2026-04-23 11:41 33.62646 -5.07874 17874 ft 368 kts 220°
2026-04-23 11:42 33.60693 -5.09880 18528 ft 371 kts 220°
2026-04-23 11:42 33.58722 -5.11902 19068 ft 375 kts 220°
2026-04-23 11:42 33.56731 -5.13944 19652 ft 378 kts 220°
2026-04-23 11:42 33.54728 -5.15996 20237 ft 380 kts 220°
2026-04-23 11:43 33.52711 -5.18063 20794 ft 383 kts 220°
2026-04-23 11:43 33.50671 -5.20151 21326 ft 387 kts 220°
2026-04-23 11:43 33.48616 -5.22253 21862 ft 390 kts 220°
2026-04-23 11:43 33.46543 -5.24372 22388 ft 393 kts 220°
2026-04-23 11:44 33.44452 -5.26508 22921 ft 396 kts 220°
2026-04-23 11:44 33.42357 -5.28647 23577 ft 395 kts 220°
2026-04-23 11:44 33.40271 -5.30775 24226 ft 392 kts 220°
2026-04-23 11:44 33.38201 -5.32886 24886 ft 389 kts 220°
2026-04-23 11:45 33.36146 -5.34978 25506 ft 387 kts 220°
2026-04-23 11:45 33.34099 -5.37063 25959 ft 388 kts 220°
2026-04-23 11:45 33.32033 -5.39166 25995 ft 394 kts 220°
2026-04-23 11:45 33.29917 -5.41317 26132 ft 404 kts 220°
2026-04-23 11:46 33.27761 -5.43509 26444 ft 409 kts 220°
2026-04-23 11:46 33.25590 -5.45713 26921 ft 409 kts 220°
2026-04-23 11:46 33.23428 -5.47908 27520 ft 407 kts 220°
2026-04-23 11:46 33.21279 -5.50087 28053 ft 406 kts 220°
2026-04-23 11:47 33.19145 -5.52250 28315 ft 409 kts 220°
2026-04-23 11:47 33.16976 -5.54447 28588 ft 409 kts 220°
2026-04-23 11:47 33.14813 -5.56636 28847 ft 406 kts 220°
2026-04-23 11:47 33.12667 -5.58807 29004 ft 405 kts 220°
2026-04-23 11:48 33.10517 -5.60980 28997 ft 405 kts 220°
2026-04-23 11:48 33.06234 -5.65305 28999 ft 403 kts 220°
2026-04-23 11:49 33.01948 -5.69627 28995 ft 404 kts 220°
2026-04-23 11:49 32.97660 -5.73946 29003 ft 403 kts 221°
2026-04-23 11:50 32.93385 -5.78246 28992 ft 402 kts 221°
2026-04-23 11:50 32.89129 -5.82521 28994 ft 400 kts 221°
2026-04-23 11:51 32.84881 -5.86783 28996 ft 399 kts 220°
2026-04-23 11:51 32.80641 -5.91031 29004 ft 398 kts 221°
2026-04-23 11:52 32.76399 -5.95277 29008 ft 399 kts 220°
2026-04-23 11:52 32.72144 -5.99528 28993 ft 399 kts 221°
2026-04-23 11:53 32.67891 -6.03774 29007 ft 400 kts 221°
2026-04-23 11:53 32.63628 -6.08024 29007 ft 400 kts 221°
2026-04-23 11:54 32.59357 -6.12275 29016 ft 401 kts 221°
2026-04-23 11:54 32.55083 -6.16525 29013 ft 401 kts 221°
2026-04-23 11:55 32.50810 -6.20769 29017 ft 400 kts 221°
2026-04-23 11:55 32.46543 -6.25002 29022 ft 400 kts 221°
2026-04-23 11:56 32.42437 -6.29403 29017 ft 396 kts 230°
2026-04-23 11:56 32.39428 -6.34825 29032 ft 394 kts 243°
2026-04-23 11:57 32.36935 -6.40620 28541 ft 397 kts 243°
2026-04-23 11:57 32.35693 -6.43500 28090 ft 391 kts 243°
2026-04-23 11:57 32.34461 -6.46344 27653 ft 386 kts 242°
2026-04-23 11:57 32.33237 -6.49153 27175 ft 383 kts 242°
2026-04-23 11:58 32.32020 -6.51936 26707 ft 379 kts 242°
2026-04-23 11:58 32.30810 -6.54697 26230 ft 376 kts 242°
2026-04-23 11:58 32.30015 -6.56510 25934 ft 374 kts 242°
2026-04-23 11:58 32.28421 -6.60138 25333 ft 370 kts 242°
2026-04-23 11:59 32.27635 -6.61927 25037 ft 369 kts 242°
2026-04-23 11:59 32.26457 -6.64607 24593 ft 367 kts 241°
2026-04-23 11:59 32.25284 -6.67273 24140 ft 365 kts 241°
2026-04-23 11:59 32.24115 -6.69927 23692 ft 364 kts 241°
2026-04-23 12:00 32.22948 -6.72576 23172 ft 363 kts 241°
2026-04-23 12:00 32.21787 -6.75210 22705 ft 360 kts 241°
2026-04-23 12:00 32.20635 -6.77822 22249 ft 357 kts 241°
2026-04-23 12:00 32.19492 -6.80410 21805 ft 354 kts 241°
2026-04-23 12:01 32.18356 -6.82982 21250 ft 355 kts 241°
2026-04-23 12:01 32.17216 -6.85563 20768 ft 353 kts 241°
2026-04-23 12:01 32.16084 -6.88128 20326 ft 351 kts 241°
2026-04-23 12:01 32.14958 -6.90677 19887 ft 349 kts 241°
2026-04-23 12:02 32.13838 -6.93212 19465 ft 347 kts 241°
2026-04-23 12:02 32.12724 -6.95731 19043 ft 346 kts 241°
2026-04-23 12:02 32.11615 -6.98237 18638 ft 344 kts 241°
2026-04-23 12:02 32.10510 -7.00732 18218 ft 342 kts 241°
2026-04-23 12:03 32.09410 -7.03215 17742 ft 341 kts 241°
2026-04-23 12:03 32.08316 -7.05683 17309 ft 338 kts 241°
2026-04-23 12:03 32.07232 -7.08126 16897 ft 335 kts 241°
2026-04-23 12:03 32.06155 -7.10554 16491 ft 332 kts 241°
2026-04-23 12:04 32.05090 -7.12952 16091 ft 330 kts 241°
2026-04-23 12:04 32.04028 -7.15341 15690 ft 327 kts 240°
2026-04-23 12:04 32.02974 -7.17710 15301 ft 325 kts 240°
2026-04-23 12:04 32.01928 -7.20059 14909 ft 323 kts 240°
2026-04-23 12:05 32.00890 -7.22400 14525 ft 321 kts 240°
2026-04-23 12:05 31.99861 -7.24729 14126 ft 319 kts 240°
2026-04-23 12:05 31.98839 -7.27041 13725 ft 317 kts 240°
2026-04-23 12:05 31.97823 -7.29338 13299 ft 315 kts 240°
2026-04-23 12:06 31.96814 -7.31618 12888 ft 313 kts 240°
2026-04-23 12:06 31.95809 -7.33888 12493 ft 311 kts 240°
2026-04-23 12:06 31.93825 -7.38365 11913 ft 301 kts 240°
2026-04-23 12:07 31.92872 -7.40515 11782 ft 292 kts 240°
2026-04-23 12:07 31.91945 -7.42603 11648 ft 283 kts 240°
2026-04-23 12:07 31.91046 -7.44628 11470 ft 277 kts 239°
2026-04-23 12:07 31.90151 -7.46639 11100 ft 278 kts 239°
2026-04-23 12:08 31.89249 -7.48662 10721 ft 280 kts 239°
2026-04-23 12:08 31.88343 -7.50693 10375 ft 281 kts 239°
2026-04-23 12:08 31.87429 -7.52724 10045 ft 281 kts 239°
2026-04-23 12:08 31.86512 -7.54758 9704 ft 281 kts 239°
2026-04-23 12:09 31.85599 -7.56784 9379 ft 280 kts 239°
2026-04-23 12:09 31.84687 -7.58807 9045 ft 280 kts 239°
2026-04-23 12:09 31.83774 -7.60831 8707 ft 280 kts 239°
2026-04-23 12:09 31.82870 -7.62834 8479 ft 276 kts 239°
2026-04-23 12:10 31.81970 -7.64828 8153 ft 276 kts 239°
2026-04-23 12:10 31.81048 -7.66807 7819 ft 275 kts 234°
2026-04-23 12:10 31.79727 -7.68402 7483 ft 272 kts 217°
2026-04-23 12:10 31.78254 -7.69749 7179 ft 272 kts 217°
2026-04-23 12:11 31.76757 -7.71117 6850 ft 273 kts 217°
2026-04-23 12:11 31.75242 -7.72512 6514 ft 274 kts 217°
2026-04-23 12:11 31.73742 -7.73901 6140 ft 275 kts 217°
2026-04-23 12:11 31.72264 -7.75276 5876 ft 273 kts 218°
2026-04-23 12:12 31.70789 -7.76651 5715 ft 267 kts 218°
2026-04-23 12:12 31.69354 -7.77990 5572 ft 260 kts 218°
2026-04-23 12:12 31.67956 -7.79293 5445 ft 253 kts 218°
2026-04-23 12:12 31.66599 -7.80522 5305 ft 241 kts 212°
2026-04-23 12:13 31.65019 -7.81061 4966 ft 239 kts 179°
2026-04-23 12:13 31.63387 -7.80682 4535 ft 240 kts 166°
2026-04-23 12:13 31.61766 -7.80646 4361 ft 228 kts 189°
2026-04-23 12:13 31.60311 -7.81156 4283 ft 211 kts 217°
2026-04-23 12:14 31.59397 -7.82378 4270 ft 198 kts 243°
2026-04-23 12:14 31.58994 -7.83909 4084 ft 196 kts 266°
2026-04-23 12:14 31.59070 -7.85479 3905 ft 192 kts 277°
2026-04-23 12:14 31.59212 -7.87021 3738 ft 188 kts 277°
2026-04-23 12:15 31.59348 -7.88538 3545 ft 186 kts 277°
2026-04-23 12:15 31.59485 -7.90045 3404 ft 186 kts 277°
2026-04-23 12:15 31.59620 -7.91552 3239 ft 183 kts 277°
2026-04-23 12:15 31.59739 -7.92889 3038 ft 181 kts 277°
2026-04-23 12:16 31.59861 -7.94250 2819 ft 180 kts 277°
2026-04-23 12:16 31.59982 -7.95619 2612 ft 170 kts 277°
2026-04-23 12:16 31.60100 -7.96954 2439 ft 156 kts 277°
2026-04-23 12:16 31.60211 -7.98206 2208 ft 154 kts 278°
2026-04-23 12:17 31.60319 -7.99430 2000 ft 151 kts 277°
2026-04-23 12:17 31.60416 -8.00635 1812 ft 146 kts 278°
2026-04-23 12:17 31.60520 -8.01707 1648 ft 146 kts 277°
2026-04-23 12:17 31.60610 -8.02746 1549 ft 138 kts 277°
2026-04-23 12:18 31.60688 -8.03584 1532 ft 110 kts 277°
2026-04-23 12:18 31.60745 -8.04272 1533 ft 33 kts 276°
2026-04-23 12:18 31.60745 -8.04370 1536 ft 9 kts 234°
2026-04-23 12:18 31.60689 -8.04394 1537 ft 9 kts 186°
2026-04-23 12:19 31.60632 -8.04400 1540 ft 8 kts 186°
2026-04-23 12:19 31.60583 -8.04379 1547 ft 8 kts 111°
2026-04-23 12:19 31.60576 -8.04309 1547 ft 10 kts 95°
2026-04-23 12:19 31.60567 -8.04209 1547 ft 15 kts 96°
2026-04-23 12:20 31.60553 -8.04069 1543 ft 20 kts 97°
2026-04-23 12:20 31.60539 -8.03890 1544 ft 24 kts 95°
2026-04-23 12:20 31.60521 -8.03681 1547 ft 27 kts 96°
2026-04-23 12:20 31.60502 -8.03468 1547 ft 25 kts 95°
2026-04-23 12:21 31.60484 -8.03269 1539 ft 24 kts 96°
2026-04-23 12:21 31.60468 -8.03082 1544 ft 23 kts 94°
2026-04-23 12:21 31.60452 -8.02904 1541 ft 22 kts 96°
2026-04-23 12:21 31.60437 -8.02726 1548 ft 21 kts 95°
2026-04-23 12:22 31.60423 -8.02557 1548 ft 21 kts 96°
2026-04-23 12:22 31.60410 -8.02415 1543 ft 11 kts 101°
2026-04-23 12:22 31.60359 -8.02397 1548 ft 7 kts 189°
2026-04-23 12:22 31.60319 -8.02402 1543 ft 4 kts 185°
2026-04-23 12:23 31.60294 -8.02405 1548 ft 2 kts 185°
2026-04-23 12:23 31.60293 -8.02405 1548 ft 0 kts 185°